Location: New York
(40.7127°N, 74.0060°W)
Time: 17:48:03
(UTC-04:00)

UNISAT 6 - Pass Details

Date: 28 April 2024
Orbit: 593 x 667 km, 97.7° (Epoch: 27 May)

Event Time Altitude Azimuth Distance (km) Brightness Sun altitude
Rises 04:59:35 0° 171° (S) 2,910 ? -10.9°
Reaches altitude 10° 05:01:48 10° 173° (S) 1,995 ? -10.5°
Maximum altitude 05:06:07 72° 258° (WSW) 650 ? -9.8°
Drops below altitude 10° 05:10:23 10° 344° (NNW) 1,967 ? -9.1°
Sets 05:12:34 0° 346° (NNW) 2,865 ? -8.7°
